Terminal Aerodrome Forecast
Issued by NWS Spokane, WA

Home | Current Version | Previous Version | Text Only | Print | Product List | Glossary On
Versions: 1 2 3 4 5 6 7 8 9 10 11 12
000
FTUS46 KOTX 282325
TAFEAT
TAF
KEAT 282325Z 2900/2924 27005KT P6SM FEW150 SCT250
     FM290500 31009KT P6SM FEW250
     FM291900 24005KT P6SM FEW150 SCT250=

USA.gov is the U.S. government's official web portal to all federal, state and local government web resources and services.